contact:dominique.lefevre@mio.osupytheas.fr, maurice.libes@osupytheas.fr, didier.mallarino@osupytheas.fr
Project:EMSO http://www.emso-fr.org/EMSO-France
Depth: 2436.0 m
Title:EMSO Ligure Ouest : Data MII capteur AQUADOPP
Date,Latitude,Longitude,X_East,Y_North,Z_Up,Amplitude_X,Amplitude_Y,Amplitude_Z,Batterie,SoundSpeed,Heading,Pitch,Roll,Pressure,TIS,Speed,Direction
, degrees North, degrees East, m.s-1, m.s-1,m.s-1, 1, 1, 1, Volt, m.s-1, degree, degree, degree, dbar, degree_C, m.s-1, degree
2020-09-05T00:04:03,42.805,6.029,-0.02,-0.005,0.005,102.0,105.0,101.0,13.3,1505.3,325.9,-0.7,1.9,2470.465,13.32,0.02,256.0
2020-09-05T00:07:03,42.805,6.029,-0.016,-0.005,-0.008,104.0,106.0,101.0,13.4,1505.3,324.9,-0.8,1.8,2470.446,13.33,0.016,252.6
2020-09-05T00:10:03,42.805,6.029,0.001,-0.006,0.039,104.0,105.0,101.0,13.4,1505.3,325.6,-0.7,1.8,2470.472,13.33,0.006,170.5
2020-09-05T00:13:03,42.805,6.029,-0.029,-0.004,0.021,104.0,105.0,101.0,13.4,1505.4,323.2,-0.7,1.8,2470.39,13.34,0.029,262.2
2020-09-05T00:16:03,42.805,6.029,-0.031,-0.003,-0.007,104.0,106.0,101.0,13.3,1505.4,327.9,-0.7,1.8,2470.394,13.34,0.031,264.5
2020-09-05T00:19:03,42.805,6.029,-0.01,-0.012,0.025,101.0,107.0,101.0,13.3,1505.4,324.0,-0.7,1.8,2470.42,13.34,0.015,219.8
2020-09-05T00:22:02,42.805,6.029,-0.022,-0.006,0.041,102.0,106.0,101.0,13.4,1505.4,327.0,-0.7,1.8,2470.39,13.34,0.022,254.7
2020-09-05T00:25:03,42.805,6.029,-0.009,0.009,0.018,104.0,106.0,101.0,13.3,1505.4,322.9,-0.7,1.8,2470.417,13.34,0.012,315.0
2020-09-05T00:28:02,42.805,6.029,-0.01,-0.008,0.005,102.0,107.0,102.0,13.4,1505.4,324.7,-0.7,1.8,2470.397,13.34,0.012,231.3
2020-09-05T00:31:05,42.805,6.029,0.012,-0.005,0.021,103.0,106.0,99.0,13.4,1505.4,325.5,-0.7,1.8,2470.392,13.34,0.013,112.6
2020-09-05T00:34:03,42.805,6.029,-0.007,-0.024,-0.009,103.0,107.0,102.0,13.4,1505.4,326.7,-0.7,1.8,2470.385,13.34,0.025,196.3
2020-09-05T00:37:03,42.805,6.029,-0.008,-0.004,-0.011,101.0,107.0,101.0,13.4,1505.4,324.4,-0.7,1.9,2470.373,13.34,0.008,243.4
2020-09-05T00:40:03,42.805,6.029,0.033,0.003,0.03,109.0,106.0,100.0,13.3,1505.4,324.8,-0.7,1.8,2470.393,13.35,0.033,84.8
2020-09-05T00:43:03,42.805,6.029,-0.006,-0.012,-0.001,104.0,107.0,100.0,13.4,1505.4,325.8,-0.7,1.8,2470.387,13.35,0.013,206.6
2020-09-05T00:46:03,42.805,6.029,-0.014,-0.026,-0.006,102.0,108.0,100.0,13.4,1505.4,326.4,-0.7,1.8,2470.396,13.35,0.029,208.3
2020-09-05T00:49:03,42.805,6.029,-0.024,-0.017,-0.026,102.0,106.0,100.0,13.4,1505.4,323.9,-0.7,1.8,2470.366,13.35,0.029,234.7
2020-09-05T00:52:03,42.805,6.029,0.012,0.008,0.017,103.0,105.0,100.0,13.4,1505.4,327.0,-0.7,1.8,2470.344,13.34,0.014,56.3
2020-09-05T00:55:03,42.805,6.029,-0.011,-0.014,0.0,104.0,107.0,100.0,13.4,1505.4,325.5,-0.7,1.8,2470.384,13.35,0.017,218.2
2020-09-05T00:58:03,42.805,6.029,-0.019,-0.001,-0.011,102.0,106.0,102.0,13.4,1505.4,323.4,-0.7,1.8,2470.311,13.34,0.019,267.0
2020-09-05T01:04:03,42.805,6.029,0.012,-0.018,-0.005,106.0,109.0,101.0,13.4,1505.3,327.8,-0.7,1.8,2470.379,13.32,0.021,146.3
2020-09-05T01:07:03,42.805,6.029,0.024,0.007,0.054,102.0,106.0,100.0,13.4,1505.3,327.8,-0.7,1.8,2470.375,13.33,0.025,73.7
2020-09-05T01:10:03,42.805,6.029,0.026,0.001,0.009,103.0,107.0,100.0,13.4,1505.3,327.1,-0.7,1.8,2470.373,13.33,0.026,87.8
2020-09-05T01:13:03,42.805,6.029,0.004,-0.014,0.043,105.0,108.0,102.0,13.4,1505.3,326.1,-0.7,1.8,2470.393,13.33,0.014,164.1
2020-09-05T01:16:03,42.805,6.029,-0.004,-0.013,0.011,103.0,106.0,101.0,13.4,1505.4,325.3,-0.7,1.8,2470.403,13.34,0.013,197.1
2020-09-05T01:19:03,42.805,6.029,0.011,-0.022,0.013,103.0,107.0,101.0,13.3,1505.4,326.8,-0.7,1.8,2470.369,13.34,0.024,153.4
2020-09-05T01:22:03,42.805,6.029,0.025,-0.004,0.032,105.0,107.0,103.0,13.4,1505.4,327.0,-0.7,1.8,2470.349,13.34,0.025,99.1
2020-09-05T01:25:03,42.805,6.029,0.008,0.005,0.0,104.0,109.0,102.0,13.4,1505.4,324.6,-0.7,1.8,2470.359,13.34,0.009,58.0
2020-09-05T01:28:03,42.805,6.029,-0.007,0.02,0.011,104.0,109.0,100.0,13.4,1505.4,327.0,-0.6,1.8,2470.347,13.34,0.021,340.7
2020-09-05T01:31:03,42.805,6.029,-0.021,0.007,0.005,103.0,108.0,100.0,13.3,1505.4,326.1,-0.7,1.8,2470.326,13.34,0.022,288.4
2020-09-05T01:34:03,42.805,6.029,0.017,-0.008,0.01,103.0,107.0,100.0,13.4,1505.4,324.2,-0.7,1.9,2470.327,13.34,0.018,115.2
2020-09-05T01:37:03,42.805,6.029,-0.003,-0.006,0.015,105.0,107.0,102.0,13.4,1505.4,325.9,-0.7,1.9,2470.36,13.35,0.006,206.6
2020-09-05T01:40:03,42.805,6.029,0.007,-0.011,0.008,104.0,108.0,101.0,13.4,1505.4,324.8,-0.7,1.8,2470.344,13.35,0.013,147.5
2020-09-05T01:43:03,42.805,6.029,0.013,0.0,0.01,104.0,108.0,99.0,13.3,1505.4,327.0,-0.7,1.8,2470.373,13.35,0.013,90.0
2020-09-05T01:46:02,42.805,6.029,0.011,0.011,0.046,103.0,110.0,100.0,13.4,1505.4,326.0,-0.7,1.8,2470.327,13.35,0.015,45.0
2020-09-05T01:49:03,42.805,6.029,-0.002,-0.012,0.018,103.0,110.0,100.0,13.4,1505.4,324.6,-0.7,1.8,2470.327,13.35,0.012,189.5
2020-09-05T01:52:03,42.805,6.029,0.014,-0.016,0.008,102.0,107.0,100.0,13.4,1505.4,326.9,-0.7,1.9,2470.351,13.34,0.021,138.8
2020-09-05T01:55:03,42.805,6.029,0.035,-0.011,0.045,103.0,107.0,101.0,13.3,1505.4,327.6,-0.7,1.8,2470.324,13.35,0.036,107.4
2020-09-05T01:58:03,42.805,6.029,0.027,-0.003,0.041,103.0,107.0,99.0,13.4,1505.4,323.2,-0.7,1.8,2470.304,13.34,0.027,96.3
2020-09-05T02:04:03,42.805,6.029,0.029,-0.001,0.044,101.0,108.0,100.0,13.4,1505.3,325.4,-0.7,1.8,2470.383,13.33,0.029,92.0
2020-09-05T02:07:03,42.805,6.029,0.021,-0.009,0.012,101.0,106.0,101.0,13.4,1505.3,328.1,-0.7,1.8,2470.371,13.33,0.022,113.2
2020-09-05T02:10:03,42.805,6.029,0.039,-0.006,0.059,103.0,109.0,102.0,13.4,1505.4,322.7,-0.7,1.9,2470.354,13.34,0.039,98.7
2020-09-05T02:13:03,42.805,6.029,0.033,0.007,0.021,103.0,107.0,102.0,13.3,1505.4,323.2,-0.7,1.8,2470.333,13.34,0.033,78.0
2020-09-05T02:16:03,42.805,6.029,0.015,-0.018,0.003,100.0,107.0,101.0,13.4,1505.4,323.6,-0.7,1.8,2470.322,13.34,0.023,140.2
2020-09-05T02:19:03,42.805,6.029,0.022,0.017,0.057,101.0,106.0,101.0,13.4,1505.4,326.7,-0.7,1.8,2470.341,13.34,0.027,52.3
2020-09-05T02:22:03,42.805,6.029,0.043,0.02,0.069,102.0,105.0,100.0,13.4,1505.4,325.0,-0.7,1.8,2470.328,13.34,0.047,65.1
2020-09-05T02:25:03,42.805,6.029,-0.001,-0.017,0.018,104.0,107.0,101.0,13.3,1505.4,322.7,-0.7,1.8,2470.348,13.34,0.017,183.4
2020-09-05T02:28:03,42.805,6.029,-0.02,-0.008,0.002,102.0,108.0,102.0,13.4,1505.4,324.3,-0.7,1.9,2470.32,13.35,0.021,248.2
2020-09-05T02:31:03,42.805,6.029,-0.028,-0.003,0.015,102.0,107.0,100.0,13.3,1505.4,324.0,-0.7,1.8,2470.31,13.35,0.028,263.9
2020-09-05T02:34:03,42.805,6.029,0.003,-0.006,0.022,102.0,108.0,100.0,13.4,1505.4,325.0,-0.7,1.8,2470.333,13.35,0.006,153.4
2020-09-05T02:37:03,42.805,6.029,0.028,-0.018,0.026,103.0,106.0,101.0,13.4,1505.4,326.5,-0.7,1.8,2470.312,13.35,0.033,122.7
2020-09-05T02:40:03,42.805,6.029,0.01,0.0,0.037,101.0,108.0,101.0,13.4,1505.4,325.1,-0.7,1.9,2470.299,13.35,0.01,90.0
2020-09-05T02:43:03,42.805,6.029,0.032,0.02,0.039,103.0,108.0,101.0,13.4,1505.4,328.1,-0.7,1.8,2470.287,13.35,0.037,58.0
2020-09-05T02:46:03,42.805,6.029,0.021,-0.01,0.027,101.0,106.0,100.0,13.4,1505.4,323.7,-0.7,1.8,2470.328,13.35,0.023,115.5
2020-09-05T02:49:03,42.805,6.029,-0.008,0.004,0.045,104.0,107.0,101.0,13.3,1505.4,325.6,-0.7,1.8,2470.275,13.35,0.008,296.6
2020-09-05T02:52:03,42.805,6.029,0.013,-0.039,-0.01,101.0,106.0,101.0,13.4,1505.4,324.7,-0.7,1.8,2470.323,13.35,0.041,161.6
2020-09-05T02:55:03,42.805,6.029,0.026,0.0,0.03,102.0,106.0,102.0,13.4,1505.4,327.6,-0.7,1.8,2470.263,13.35,0.026,90.0
2020-09-05T02:58:03,42.805,6.029,0.012,0.01,0.044,102.0,106.0,101.0,13.4,1505.4,322.8,-0.7,1.8,2470.312,13.35,0.015,50.2
2020-09-05T03:04:03,42.805,6.029,0.036,-0.022,0.037,102.0,104.0,101.0,13.4,1505.3,322.8,-0.8,1.8,2470.305,13.33,0.042,121.4
2020-09-05T03:07:03,42.805,6.029,0.0,-0.004,0.017,102.0,107.0,100.0,13.3,1505.4,322.9,-0.7,1.8,2470.328,13.34,0.004,180.0
2020-09-05T03:10:03,42.805,6.029,0.067,-0.005,0.068,104.0,106.0,100.0,13.4,1505.4,327.9,-0.7,1.8,2470.358,13.34,0.067,94.3
2020-09-05T03:13:03,42.805,6.029,0.049,-0.002,0.059,102.0,106.0,100.0,13.4,1505.4,325.7,-0.7,1.8,2470.326,13.34,0.049,92.3
2020-09-05T03:16:03,42.805,6.029,0.062,-0.008,0.057,103.0,105.0,100.0,13.4,1505.4,324.8,-0.7,1.8,2470.361,13.34,0.062,97.3
2020-09-05T03:19:03,42.805,6.029,0.02,-0.006,0.07,102.0,106.0,100.0,13.3,1505.4,324.0,-0.7,1.8,2470.314,13.34,0.02,106.7
2020-09-05T03:22:03,42.805,6.029,0.049,-0.022,0.026,103.0,111.0,100.0,13.4,1505.4,327.6,-0.7,1.8,2470.275,13.34,0.053,114.2
2020-09-05T03:25:03,42.805,6.029,0.019,-0.007,0.037,104.0,107.0,101.0,13.3,1505.4,327.5,-0.7,1.8,2470.288,13.35,0.02,110.2
2020-09-05T03:28:03,42.805,6.029,0.057,-0.018,0.091,101.0,106.0,100.0,13.3,1505.4,325.2,-0.7,1.8,2470.322,13.35,0.059,107.5
2020-09-05T03:31:04,42.805,6.029,0.027,-0.01,0.048,103.0,105.0,101.0,13.3,1505.4,328.3,-0.7,1.8,2470.321,13.34,0.028,110.3
2020-09-05T03:37:03,42.805,6.029,0.005,-0.031,-0.012,105.0,105.0,101.0,13.4,1505.3,326.0,-0.7,1.8,2470.319,13.32,0.031,170.8
2020-09-05T03:40:04,42.805,6.029,0.001,-0.016,0.026,105.0,104.0,99.0,13.3,1505.3,325.8,-0.7,1.9,2470.292,13.33,0.016,176.4
2020-09-05T03:43:03,42.805,6.029,-0.005,-0.026,0.017,102.0,107.0,100.0,13.4,1505.3,325.8,-0.7,1.8,2470.345,13.33,0.026,190.9
2020-09-05T03:46:05,42.805,6.029,0.009,-0.005,0.037,104.0,104.0,100.0,13.4,1505.3,326.7,-0.7,1.8,2470.306,13.33,0.01,119.1
2020-09-05T03:49:03,42.805,6.029,0.021,-0.01,0.01,104.0,104.0,100.0,13.3,1505.3,325.0,-0.7,1.8,2470.31,13.33,0.023,115.5
2020-09-05T03:52:03,42.805,6.029,-0.001,-0.014,-0.004,100.0,105.0,101.0,13.4,1505.4,327.6,-0.7,1.9,2470.325,13.34,0.014,184.1
2020-09-05T03:55:03,42.805,6.029,-0.005,-0.014,0.004,102.0,106.0,101.0,13.4,1505.4,326.5,-0.7,1.9,2470.333,13.34,0.014,199.6
2020-09-05T03:58:03,42.805,6.029,0.01,-0.018,0.006,102.0,106.0,100.0,13.4,1505.4,328.1,-0.7,1.9,2470.321,13.34,0.02,150.9
2020-09-05T04:04:03,42.805,6.029,-0.039,-0.018,-0.075,104.0,107.0,100.0,13.4,1505.3,324.8,-0.7,1.8,2470.334,13.32,0.042,245.2
2020-09-05T04:07:03,42.805,6.029,-0.036,-0.031,-0.014,102.0,107.0,100.0,13.4,1505.3,323.2,-0.7,1.8,2470.341,13.32,0.047,229.3
2020-09-05T04:10:03,42.805,6.029,-0.046,-0.03,-0.044,103.0,107.0,99.0,13.4,1505.3,324.3,-0.7,1.9,2470.342,13.33,0.054,236.9
2020-09-05T04:13:03,42.805,6.029,-0.069,-0.023,-0.046,103.0,107.0,101.0,13.4,1505.3,326.5,-0.7,1.8,2470.307,13.33,0.072,251.6
2020-09-05T04:16:03,42.805,6.029,0.003,-0.022,-0.019,104.0,107.0,99.0,13.4,1505.3,325.5,-0.7,1.8,2470.338,13.33,0.022,172.2
2020-09-05T04:19:03,42.805,6.029,-0.014,-0.016,-0.001,104.0,104.0,100.0,13.3,1505.3,323.3,-0.7,1.8,2470.275,13.33,0.021,221.2
2020-09-05T04:22:02,42.805,6.029,0.014,-0.028,0.003,107.0,107.0,100.0,13.4,1505.3,325.7,-0.8,1.8,2470.303,13.33,0.031,153.4
2020-09-05T04:25:03,42.805,6.029,0.058,-0.029,0.042,102.0,108.0,101.0,13.4,1505.3,326.9,-0.7,1.8,2470.344,13.33,0.064,116.6
2020-09-05T04:28:03,42.805,6.029,0.042,-0.016,0.038,102.0,106.0,101.0,13.4,1505.3,325.7,-0.7,1.8,2470.289,13.33,0.044,110.9
2020-09-05T04:31:03,42.805,6.029,0.067,-0.016,0.052,103.0,106.0,101.0,13.4,1505.3,323.9,-0.7,1.9,2470.265,13.33,0.068,103.4
2020-09-05T04:34:03,42.805,6.029,0.035,-0.01,0.04,102.0,108.0,100.0,13.4,1505.3,326.4,-0.7,1.8,2470.31,13.33,0.036,105.9
2020-09-05T04:37:03,42.805,6.029,0.048,-0.01,0.038,102.0,106.0,100.0,13.4,1505.3,325.7,-0.7,1.8,2470.293,13.33,0.049,101.8
2020-09-05T04:40:03,42.805,6.029,0.033,-0.021,0.039,103.0,106.0,100.0,13.3,1505.3,324.2,-0.7,1.8,2470.275,13.33,0.039,122.5
2020-09-05T04:43:03,42.805,6.029,0.06,-0.029,0.061,102.0,106.0,100.0,13.4,1505.3,324.9,-0.7,1.9,2470.304,13.33,0.066,115.8
2020-09-05T04:46:03,42.805,6.029,0.015,-0.017,0.039,104.0,107.0,100.0,13.4,1505.3,325.2,-0.7,1.8,2470.27,13.33,0.022,138.6
2020-09-05T04:49:03,42.805,6.029,-0.031,-0.013,-0.018,101.0,106.0,101.0,13.3,1505.3,325.5,-0.7,1.8,2470.316,13.33,0.033,247.3
2020-09-05T04:52:03,42.805,6.029,-0.023,-0.038,-0.016,101.0,107.0,101.0,13.3,1505.3,325.3,-0.7,1.8,2470.293,13.33,0.044,211.2
2020-09-05T04:55:03,42.805,6.029,-0.039,-0.023,-0.039,101.0,108.0,101.0,13.4,1505.3,323.9,-0.7,1.8,2470.33,13.33,0.045,239.5
2020-09-05T04:58:03,42.805,6.029,0.018,-0.03,0.03,102.0,107.0,100.0,13.3,1505.3,326.9,-0.7,1.8,2470.322,13.33,0.034,149.0
2020-09-05T05:04:03,42.805,6.029,0.023,-0.025,0.017,104.0,106.0,101.0,13.3,1505.3,322.8,-0.7,1.8,2470.378,13.31,0.033,137.4
2020-09-05T05:07:03,42.805,6.029,0.03,-0.013,0.057,101.0,107.0,101.0,13.3,1505.3,325.6,-0.7,1.9,2470.347,13.32,0.032,113.4
2020-09-05T05:10:03,42.805,6.029,0.059,-0.015,0.066,103.0,105.0,101.0,13.4,1505.3,326.7,-0.7,1.8,2470.35,13.32,0.06,104.3
2020-09-05T05:13:03,42.805,6.029,0.039,-0.015,0.035,103.0,105.0,102.0,13.3,1505.3,326.8,-0.7,1.8,2470.337,13.33,0.041,111.0
2020-09-05T05:16:03,42.805,6.029,0.033,-0.015,0.043,101.0,106.0,101.0,13.4,1505.3,323.3,-0.8,1.9,2470.313,13.33,0.036,114.4
2020-09-05T05:19:03,42.805,6.029,0.051,-0.014,0.029,101.0,107.0,100.0,13.4,1505.3,325.2,-0.7,1.8,2470.376,13.33,0.052,105.3
2020-09-05T05:22:03,42.805,6.029,0.033,-0.01,0.047,103.0,105.0,101.0,13.3,1505.3,323.0,-0.7,1.9,2470.343,13.33,0.034,106.9
2020-09-05T05:25:03,42.805,6.029,0.01,-0.021,0.031,101.0,112.0,100.0,13.4,1505.3,328.2,-0.7,1.8,2470.356,13.33,0.023,154.5
2020-09-05T05:28:03,42.805,6.029,0.028,-0.04,0.022,102.0,106.0,100.0,13.3,1505.3,324.3,-0.7,1.8,2470.361,13.33,0.048,145.0
2020-09-05T05:31:05,42.805,6.029,0.012,-0.029,0.02,102.0,107.0,101.0,13.3,1505.3,326.5,-0.7,1.8,2470.355,13.33,0.031,157.5
2020-09-05T05:34:03,42.805,6.029,0.034,-0.027,0.037,103.0,104.0,101.0,13.4,1505.3,323.6,-0.7,1.8,2470.315,13.33,0.043,128.5
2020-09-05T05:37:03,42.805,6.029,-0.004,-0.032,0.003,103.0,107.0,99.0,13.4,1505.3,327.8,-0.7,1.8,2470.375,13.33,0.032,187.1
2020-09-05T05:40:03,42.805,6.029,0.044,-0.024,0.013,102.0,106.0,99.0,13.4,1505.3,328.6,-0.7,1.9,2470.363,13.33,0.05,118.6
2020-09-05T05:43:03,42.805,6.029,-0.019,-0.04,0.007,103.0,105.0,101.0,13.4,1505.3,325.5,-0.7,1.8,2470.356,13.33,0.044,205.4
2020-09-05T05:46:03,42.805,6.029,-0.039,-0.036,-0.038,103.0,106.0,101.0,13.3,1505.3,325.5,-0.7,1.8,2470.349,13.33,0.053,227.3
2020-09-05T05:49:03,42.805,6.029,0.016,-0.012,0.002,101.0,106.0,101.0,13.4,1505.3,324.3,-0.7,1.8,2470.356,13.33,0.02,126.9
2020-09-05T05:52:03,42.805,6.029,0.007,-0.032,0.031,103.0,105.0,99.0,13.4,1505.3,325.2,-0.7,1.8,2470.363,13.33,0.032,167.7
2020-09-05T05:55:03,42.805,6.029,0.032,-0.031,0.013,103.0,105.0,102.0,13.4,1505.3,327.8,-0.7,1.8,2470.341,13.33,0.044,134.1
2020-09-05T05:58:03,42.805,6.029,-0.015,-0.018,0.0,102.0,106.0,101.0,13.4,1505.3,327.7,-0.7,1.8,2470.372,13.33,0.023,219.8
2020-09-05T06:04:03,42.805,6.029,0.038,-0.017,0.03,102.0,106.0,100.0,13.3,1505.3,325.8,-0.7,1.8,2470.367,13.31,0.041,114.1
2020-09-05T06:07:02,42.805,6.029,0.02,-0.04,-0.007,102.0,105.0,100.0,13.3,1505.3,324.9,-0.7,1.8,2470.392,13.32,0.044,153.4
2020-09-05T06:10:03,42.805,6.029,0.018,-0.022,0.035,101.0,106.0,102.0,13.4,1505.3,324.0,-0.7,1.8,2470.408,13.32,0.028,140.7
2020-09-05T06:13:03,42.805,6.029,-0.02,-0.005,0.005,104.0,105.0,103.0,13.4,1505.3,325.3,-0.7,1.8,2470.395,13.32,0.02,256.0
2020-09-05T06:16:03,42.805,6.029,-0.019,-0.04,-0.048,105.0,107.0,101.0,13.3,1505.3,326.4,-0.7,1.8,2470.431,13.33,0.044,205.4
2020-09-05T06:19:03,42.805,6.029,-0.007,-0.03,-0.004,101.0,106.0,102.0,13.3,1505.3,324.8,-0.7,1.8,2470.361,13.33,0.03,193.1
2020-09-05T06:22:03,42.805,6.029,0.0,-0.019,0.017,102.0,107.0,100.0,13.3,1505.3,324.7,-0.7,1.8,2470.378,13.33,0.019,180.0
2020-09-05T06:25:03,42.805,6.029,-0.016,-0.026,-0.007,102.0,105.0,99.0,13.3,1505.3,327.5,-0.7,1.8,2470.418,13.33,0.03,211.6
2020-09-05T06:28:03,42.805,6.029,0.017,-0.037,-0.019,101.0,105.0,101.0,13.4,1505.3,322.8,-0.7,1.8,2470.399,13.33,0.04,155.3
2020-09-05T06:31:03,42.805,6.029,0.007,-0.018,0.02,102.0,106.0,100.0,13.4,1505.3,325.2,-0.7,1.9,2470.39,13.33,0.019,158.8
2020-09-05T06:34:03,42.805,6.029,0.033,-0.036,0.019,103.0,104.0,100.0,13.3,1505.3,324.2,-0.7,1.8,2470.36,13.33,0.048,137.5
2020-09-05T06:37:02,42.805,6.029,0.014,-0.024,0.008,104.0,106.0,101.0,13.3,1505.3,323.2,-0.7,1.8,2470.372,13.33,0.027,149.7
2020-09-05T06:40:04,42.805,6.029,0.015,-0.024,0.014,103.0,105.0,99.0,13.3,1505.3,324.4,-0.7,1.8,2470.411,13.33,0.028,148.0
2020-09-05T06:43:03,42.805,6.029,0.005,-0.043,-0.012,100.0,107.0,101.0,13.4,1505.3,323.9,-0.7,1.8,2470.408,13.33,0.043,173.4
2020-09-05T06:46:03,42.805,6.029,-0.017,-0.031,0.018,102.0,105.0,100.0,13.4,1505.3,326.8,-0.7,1.8,2470.396,13.33,0.035,208.7
2020-09-05T06:49:03,42.805,6.029,-0.004,-0.022,0.021,101.0,103.0,100.0,13.4,1505.3,325.2,-0.7,1.8,2470.375,13.33,0.022,190.3
2020-09-05T06:52:02,42.805,6.029,0.022,-0.019,0.017,102.0,104.0,100.0,13.4,1505.3,326.6,-0.7,1.9,2470.416,13.33,0.029,130.8
2020-09-05T06:55:03,42.805,6.029,0.008,-0.001,0.034,101.0,104.0,101.0,13.3,1505.3,324.7,-0.7,1.8,2470.407,13.33,0.008,97.1
2020-09-05T06:58:03,42.805,6.029,0.006,-0.016,0.001,100.0,105.0,101.0,13.4,1505.3,326.5,-0.7,1.8,2470.416,13.33,0.017,159.4
2020-09-05T07:04:03,42.805,6.029,0.009,-0.032,-0.004,102.0,104.0,101.0,13.3,1505.3,324.4,-0.7,1.8,2470.433,13.31,0.033,164.3
2020-09-05T07:07:03,42.805,6.029,0.015,-0.018,0.031,102.0,106.0,101.0,13.4,1505.3,327.2,-0.7,1.8,2470.455,13.32,0.023,140.2
2020-09-05T07:10:03,42.805,6.029,0.006,-0.022,0.03,102.0,106.0,101.0,13.4,1505.3,325.9,-0.7,1.8,2470.419,13.32,0.022,164.7
2020-09-05T07:13:03,42.805,6.029,-0.007,-0.027,0.008,102.0,105.0,100.0,13.4,1505.3,325.4,-0.7,1.9,2470.482,13.32,0.027,194.5
2020-09-05T07:16:03,42.805,6.029,-0.021,-0.022,-0.021,105.0,105.0,101.0,13.4,1505.3,325.9,-0.7,1.8,2470.434,13.33,0.03,223.7
2020-09-05T07:19:03,42.805,6.029,-0.021,-0.024,-0.018,101.0,106.0,102.0,13.3,1505.3,325.5,-0.7,1.8,2470.463,13.33,0.031,221.2
2020-09-05T07:22:02,42.805,6.029,-0.011,-0.025,-0.024,101.0,105.0,101.0,13.4,1505.3,326.0,-0.7,1.8,2470.441,13.33,0.027,203.7
2020-09-05T07:25:03,42.805,6.029,-0.024,-0.028,-0.005,102.0,106.0,101.0,13.4,1505.3,323.5,-0.7,1.8,2470.471,13.33,0.036,220.6
2020-09-05T07:28:03,42.805,6.029,-0.014,-0.019,-0.012,101.0,107.0,102.0,13.4,1505.3,326.7,-0.7,1.8,2470.511,13.33,0.023,216.4
2020-09-05T07:31:03,42.805,6.029,0.019,-0.038,0.038,104.0,104.0,99.0,13.4,1505.3,324.9,-0.7,1.8,2470.457,13.33,0.042,153.4
2020-09-05T07:34:03,42.805,6.029,-0.006,-0.025,-0.015,103.0,106.0,101.0,13.4,1505.3,325.6,-0.7,1.8,2470.419,13.33,0.025,193.5
2020-09-05T07:37:03,42.805,6.029,-0.024,-0.039,-0.01,103.0,107.0,102.0,13.4,1505.3,323.4,-0.7,1.9,2470.432,13.33,0.045,211.6
2020-09-05T07:40:03,42.805,6.029,-0.021,-0.039,-0.026,102.0,104.0,101.0,13.3,1505.3,326.5,-0.7,1.8,2470.443,13.33,0.044,208.3
2020-09-05T07:43:03,42.805,6.029,-0.013,-0.024,-0.007,103.0,105.0,101.0,13.3,1505.3,325.5,-0.7,1.9,2470.43,13.33,0.027,208.4
2020-09-05T07:46:02,42.805,6.029,0.007,-0.02,0.04,104.0,105.0,100.0,13.4,1505.3,327.3,-0.7,1.8,2470.453,13.33,0.021,160.7
2020-09-05T07:49:03,42.805,6.029,0.006,-0.013,-0.009,101.0,107.0,101.0,13.3,1505.3,325.7,-0.7,1.8,2470.417,13.33,0.014,155.2
2020-09-05T07:52:02,42.805,6.029,-0.027,-0.037,-0.011,101.0,106.0,101.0,13.4,1505.3,323.3,-0.7,1.9,2470.495,13.33,0.045,216.1
2020-09-05T07:55:03,42.805,6.029,0.007,-0.009,0.066,102.0,105.0,99.0,13.4,1505.3,326.1,-0.7,1.8,2470.412,13.33,0.011,142.1
2020-09-05T07:58:03,42.805,6.029,0.025,-0.034,0.022,100.0,103.0,101.0,13.4,1505.3,325.9,-0.7,1.8,2470.448,13.33,0.042,143.7
2020-09-05T08:04:03,42.805,6.029,-0.008,-0.021,-0.01,101.0,104.0,100.0,13.3,1505.3,326.7,-0.8,1.8,2470.484,13.31,0.022,200.9
2020-09-05T08:07:03,42.805,6.029,0.0,-0.026,-0.009,100.0,106.0,100.0,13.3,1505.3,326.7,-0.7,1.8,2470.471,13.32,0.026,180.0
2020-09-05T08:10:03,42.805,6.029,-0.015,-0.023,0.001,102.0,106.0,99.0,13.4,1505.3,325.7,-0.7,1.8,2470.505,13.32,0.027,213.1
2020-09-05T08:13:03,42.805,6.029,-0.009,-0.01,0.016,100.0,105.0,102.0,13.4,1505.3,323.4,-0.7,1.8,2470.475,13.32,0.013,222.0
2020-09-05T08:16:03,42.805,6.029,0.013,-0.013,0.034,104.0,105.0,99.0,13.4,1505.3,326.4,-0.7,1.8,2470.44,13.33,0.018,135.0
2020-09-05T08:19:03,42.805,6.029,0.002,-0.029,-0.007,105.0,104.0,101.0,13.4,1505.3,326.6,-0.7,1.8,2470.444,13.33,0.029,176.1
2020-09-05T08:22:03,42.805,6.029,-0.038,-0.02,-0.023,101.0,105.0,100.0,13.3,1505.3,324.3,-0.7,1.9,2470.461,13.33,0.042,242.2
2020-09-05T08:25:03,42.805,6.029,-0.014,-0.036,-0.021,102.0,105.0,100.0,13.4,1505.3,323.3,-0.7,1.8,2470.453,13.33,0.038,201.2
2020-09-05T08:28:03,42.805,6.029,0.0,-0.014,-0.019,101.0,105.0,100.0,13.4,1505.3,326.5,-0.7,1.8,2470.459,13.33,0.014,180.0
2020-09-05T08:31:03,42.805,6.029,-0.029,0.016,-0.007,102.0,106.0,101.0,13.4,1505.3,325.5,-0.7,1.8,2470.47,13.33,0.033,298.9
2020-09-05T08:34:03,42.805,6.029,0.008,0.005,0.016,102.0,104.0,100.0,13.4,1505.4,327.7,-0.7,1.8,2470.458,13.34,0.009,58.0
2020-09-05T08:37:03,42.805,6.029,-0.026,-0.03,-0.041,102.0,102.0,99.0,13.4,1505.4,324.6,-0.7,1.8,2470.471,13.34,0.039,220.9
2020-09-05T08:40:03,42.805,6.029,-0.019,-0.032,0.006,101.0,103.0,101.0,13.4,1505.4,324.6,-0.7,1.8,2470.462,13.34,0.037,210.7
2020-09-05T08:43:03,42.805,6.029,-0.031,-0.02,-0.002,101.0,104.0,100.0,13.3,1505.4,324.7,-0.7,1.8,2470.46,13.34,0.036,237.2
2020-09-05T08:46:03,42.805,6.029,-0.028,-0.03,-0.012,101.0,106.0,102.0,13.4,1505.3,327.6,-0.7,1.8,2470.464,13.33,0.041,223.0
2020-09-05T08:49:03,42.805,6.029,-0.04,-0.016,-0.002,102.0,103.0,102.0,13.3,1505.4,325.3,-0.7,1.8,2470.423,13.34,0.043,248.2
2020-09-05T08:52:03,42.805,6.029,-0.002,-0.014,0.016,102.0,105.0,100.0,13.4,1505.4,323.9,-0.7,1.8,2470.448,13.34,0.014,188.1
2020-09-05T08:55:03,42.805,6.029,-0.022,-0.024,0.03,102.0,102.0,100.0,13.4,1505.4,324.4,-0.7,1.8,2470.385,13.34,0.032,222.5
2020-09-05T08:58:03,42.805,6.029,-0.007,-0.025,0.009,103.0,104.0,100.0,13.4,1505.4,324.3,-0.7,1.8,2470.476,13.34,0.025,195.6
2020-09-05T09:04:03,42.805,6.029,-0.001,-0.017,0.026,102.0,105.0,99.0,13.4,1505.3,326.1,-0.7,1.8,2470.453,13.31,0.017,183.4
2020-09-05T09:07:02,42.805,6.029,0.033,-0.009,0.055,100.0,104.0,101.0,13.4,1505.3,327.0,-0.8,1.8,2470.474,13.32,0.034,105.3
2020-09-05T09:10:03,42.805,6.029,0.031,-0.016,0.048,102.0,106.0,101.0,13.4,1505.3,324.1,-0.7,1.8,2470.449,13.32,0.034,117.3
2020-09-05T09:13:03,42.805,6.029,0.021,-0.011,0.021,101.0,105.0,101.0,13.3,1505.3,326.5,-0.7,1.8,2470.436,13.33,0.023,117.6
2020-09-05T09:16:03,42.805,6.029,-0.002,-0.027,0.015,102.0,107.0,101.0,13.3,1505.3,323.2,-0.7,1.8,2470.451,13.33,0.027,184.2
2020-09-05T09:19:03,42.805,6.029,0.008,-0.032,0.011,103.0,105.0,100.0,13.4,1505.3,326.2,-0.7,1.8,2470.473,13.33,0.032,166.0
2020-09-05T09:22:02,42.805,6.029,-0.026,-0.007,-0.005,102.0,105.0,101.0,13.3,1505.3,325.9,-0.7,1.9,2470.484,13.33,0.026,254.9
2020-09-05T09:25:03,42.805,6.029,-0.017,-0.037,0.011,102.0,104.0,99.0,13.3,1505.3,324.0,-0.7,1.8,2470.446,13.33,0.04,204.7
2020-09-05T09:28:03,42.805,6.029,0.025,-0.025,0.02,103.0,104.0,101.0,13.4,1505.3,324.7,-0.7,1.8,2470.417,13.33,0.035,135.0
2020-09-05T09:31:03,42.805,6.029,-0.007,-0.018,0.007,103.0,105.0,100.0,13.4,1505.3,324.2,-0.7,1.8,2470.434,13.33,0.019,201.2
2020-09-05T09:34:03,42.805,6.029,-0.011,-0.022,0.001,101.0,105.0,100.0,13.3,1505.3,326.2,-0.7,1.8,2470.405,13.33,0.024,206.6
2020-09-05T09:37:03,42.805,6.029,0.0,-0.02,0.008,102.0,103.0,100.0,13.4,1505.3,326.0,-0.7,1.8,2470.456,13.33,0.02,180.0
2020-09-05T09:40:03,42.805,6.029,0.009,-0.021,-0.006,101.0,104.0,100.0,13.4,1505.3,325.2,-0.7,1.8,2470.441,13.33,0.022,156.8
2020-09-05T09:43:03,42.805,6.029,0.006,-0.017,0.008,102.0,104.0,100.0,13.3,1505.4,325.5,-0.7,1.8,2470.418,13.34,0.018,160.6
2020-09-05T09:46:03,42.805,6.029,-0.004,-0.007,0.02,101.0,103.0,100.0,13.4,1505.4,325.4,-0.7,1.8,2470.437,13.34,0.008,209.7
2020-09-05T09:49:03,42.805,6.029,-0.005,-0.023,-0.012,101.0,105.0,100.0,13.4,1505.4,328.5,-0.7,1.8,2470.423,13.34,0.023,192.3
2020-09-05T09:52:03,42.805,6.029,0.001,-0.004,0.064,101.0,105.0,100.0,13.3,1505.4,326.6,-0.7,1.8,2470.431,13.34,0.004,166.0
2020-09-05T09:55:03,42.805,6.029,0.058,-0.012,0.066,101.0,104.0,100.0,13.4,1505.4,324.2,-0.7,1.8,2470.445,13.34,0.059,101.7
2020-09-05T09:58:03,42.805,6.029,-0.005,-0.018,0.009,102.0,105.0,101.0,13.3,1505.4,325.3,-0.7,1.8,2470.415,13.34,0.018,195.5